Total_Precipitation_Accumulation
0.21 0.25 0.37 0.30 0.08 0.05 0.13 0.15 0.20 0.17 0.18 0.22 0.33 0.45 0.50 0.41 0.97 1.82 0.93 0.53 0.20 0.22 0.24 0.20 0.23 0.33 0.24 0.30 0.53 0.65 0.49 0.26 0.16 0.19 0.18 0.35 0.27 0.29 0.44 0.38 0.48 0.42 0.34 0.18 0.17 0.04 0.10 0.04 0.22 0.19 0.19 0.39 0.15 0.03 0.01 0.01 0.00 0.00 0.08 0.02 0.03 0.00 0.01 0.01 0.04 0.15 0.03 0.02 0.00 0.00 0.00 0.00 0.00 0.00 0.00 0.00 0.06 0.09 0.09 0.13 0.21 0.13 0.12 0.07 0.18 0.07 0.90
0.40 0.37 0.49 0.10 0.07 0.09 0.11 0.17 0.18 0.19 0.33 0.88 0.36 0.33 0.60 0.66 1.94 1.10 0.98 0.52 0.36 0.47 0.38 0.24 0.11 0.19 0.17 0.26 0.44 0.61 0.48 0.33 0.26 0.18 0.20 0.41 0.43 0.47 0.43 0.60 0.30 0.38 0.24 0.11 0.30 0.10 0.13 0.03 0.11 0.15 0.07 0.24 0.04 0.01 0.01 0.01 0.04 0.08 0.40 0.08 0.08 0.08 0.02 0.01 0.13 0.07 0.18 0.15 0.04 0.01 0.00 0.00 0.01 0.02 0.01 0.00 0.01 0.04 0.10 0.08 0.14 0.01 0.05 0.19 0.15 0.22 0.54
0.33 0.35 0.12 0.05 0.07 0.09 0.10 0.15 0.15 0.17 0.29 0.54 0.75 0.52 0.65 0.89 1.45 1.40 1.11 0.57 0.44 0.49 0.60 0.30 0.17 0.23 0.18 0.27 0.34 0.56 0.58 0.36 0.25 0.22 0.23 0.31 0.38 0.48 0.50 0.39 0.18 0.30 0.20 0.09 0.28 0.06 0.16 0.11 0.18 0.13 0.23 0.30 0.01 0.01 0.02 0.01 0.13 0.10 0.02 0.05 0.03 0.05 0.08 0.02 0.09 0.24 0.21 0.23 0.23 0.21 0.12 0.05 0.02 0.02 0.01 0.05 0.02 0.08 0.15 0.05 0.06 0.05 0.07 0.12 0.10 0.59 0.52
0.12 0.10 0.09 0.05 0.05 0.11 0.07 0.11 0.16 0.14 0.19 0.35 0.57 0.66 0.73 1.31 1.64 1.08 1.14 1.43 0.98 0.27 0.35 0.30 0.40 0.20 0.29 0.23 0.26 0.33 0.62 0.38 0.39 0.27 0.28 0.20 0.23 0.47 0.85 0.28 0.21 0.31 0.71 0.12 0.45 0.15 0.08 0.13 0.08 0.08 0.31 0.18 0.07 0.03 0.01 0.04 0.03 0.04 0.02 0.08 0.10 0.27 0.05 0.10 0.10 0.28 0.47 0.27 0.24 0.14 0.04 0.03 0.06 0.07 0.05 0.06 0.00 0.03 0.07 0.12 0.15 0.12 0.15 0.11 0.10 0.17 0.65
0.10 0.08 0.09 0.05 0.06 0.07 0.08 0.09 0.09 0.12 0.12 0.36 0.64 0.48 0.92 1.02 1.34 1.15 0.69 0.56 0.85 0.63 0.31 0.27 0.25 0.22 0.28 0.55 0.29 0.39 0.43 0.48 0.41 0.17 0.46 0.18 0.22 0.20 0.17 0.09 0.33 0.20 0.21 0.08 0.18 0.20 0.16 0.05 0.06 0.22 0.36 0.25 0.27 0.02 0.16 0.05 0.00 0.01 0.03 0.08 0.21 0.60 0.35 0.17 0.05 0.22 0.11 0.03 0.14 0.03 0.04 0.12 0.11 0.13 0.06 0.02 0.05 0.04 0.08 0.03 0.13 0.26 0.16 0.26 0.23 0.15 0.19
0.11 0.09 0.08 0.06 0.06 0.08 0.11 0.12 0.07 0.08 0.10 0.18 0.48 0.71 0.85 1.23 1.20 1.07 0.96 0.76 0.51 0.44 0.75 0.33 0.42 0.27 0.28 0.64 0.24 0.30 0.49 0.45 0.67 0.36 0.24 0.24 0.09 0.30 0.14 0.14 0.16 0.07 0.12 0.16 0.21 0.29 0.13 0.14 0.09 0.22 0.15 0.11 0.35 0.52 0.21 0.28 0.08 0.05 0.08 0.03 0.05 0.21 0.23 0.36 0.32 0.24 0.23 0.11 0.03 0.09 0.05 0.09 0.13 0.11 0.18 0.16 0.11 0.07 0.13 0.10 0.12 0.17 0.11 0.46 0.43 0.50 0.15
0.11 0.11 0.07 0.06 0.08 0.06 0.07 0.10 0.12 0.06 0.10 0.13 0.41 0.56 0.57 1.67 1.24 1.24 0.64 0.48 0.53 0.28 0.36 0.29 0.34 0.60 0.44 0.37 0.23 0.36 0.35 0.58 0.55 0.68 0.88 0.62 0.42 0.49 0.30 0.22 0.09 0.06 0.16 0.19 0.39 0.22 0.22 0.14 0.39 0.27 0.21 0.32 0.31 0.50 0.41 0.24 0.12 0.04 0.18 0.06 0.10 0.10 0.36 0.41 0.38 0.39 0.49 0.22 0.15 0.11 0.20 0.17 0.10 0.03 0.16 0.19 0.20 0.20 0.08 0.06 0.12 0.17 0.12 0.12 0.11 0.14 0.21
0.09 0.09 0.07 0.05 0.07 0.05 0.05 0.13 0.11 0.06 0.10 0.14 0.34 0.53 1.24 1.54 1.93 1.52 0.46 0.60 0.53 0.36 0.65 0.60 0.48 0.43 0.22 0.34 0.28 0.34 0.45 0.52 0.97 0.60 0.70 0.79 0.67 0.68 0.54 0.26 0.10 0.17 0.45 0.31 0.42 0.74 0.44 0.50 0.23 0.20 0.25 0.45 0.22 0.34 0.54 0.78 0.13 0.07 0.18 0.11 0.23 0.31 0.62 0.14 0.38 0.37 0.31 0.46 0.26 0.22 0.37 0.14 0.17 0.02 0.04 0.04 0.12 0.05 0.07 0.12 0.08 0.07 0.17 0.13 0.02 0.02 0.17
0.13 0.07 0.05 0.03 0.03 0.05 0.07 0.11 0.09 0.09 0.14 0.29 0.41 0.83 1.22 1.36 1.40 1.31 0.84 0.53 0.44 0.43 0.56 0.48 0.54 0.63 0.52 0.33 0.43 0.32 0.37 0.50 0.71 0.98 0.50 0.61 0.80 0.66 0.60 0.32 0.23 0.09 0.15 0.16 0.34 0.41 0.38 0.21 0.27 0.62 0.23 0.28 0.29 0.17 0.42 0.04 0.34 0.20 0.38 0.19 0.53 0.14 1.01 0.39 0.77 0.36 0.51 0.45 0.50 0.39 0.49 0.32 0.33 0.21 0.09 0.06 0.22 0.18 0.08 0.18 0.26 0.21 0.28 0.28 0.24 0.04 0.16
0.09 0.07 0.04 0.03 0.03 0.04 0.07 0.07 0.09 0.11 0.18 0.64 0.38 0.80 1.27 0.86 0.95 0.78 0.92 0.38 0.06 0.35 0.38 0.64 0.43 0.51 0.60 0.72 0.56 0.40 0.53 0.35 0.46 0.73 0.29 0.67 0.38 0.34 0.42 0.31 0.42 0.50 0.29 0.37 0.54 0.35 0.62 0.40 0.20 0.11 0.20 0.24 0.53 0.06 0.30 0.24 0.43 0.34 0.10 0.27 0.35 0.44 0.20 0.35 0.37 0.33 0.47 0.69 0.57 0.59 0.39 0.44 0.53 0.37 0.18 0.15 0.22 0.20 0.12 0.12 0.13 0.15 0.32 0.72 0.46 0.24 0.15
0.07 0.06 0.04 0.02 0.03 0.04 0.04 0.07 0.09 0.15 0.27 0.78 0.79 0.89 1.01 1.25 1.38 0.40 0.30 0.31 0.06 0.31 0.21 0.18 0.22 0.77 0.50 0.59 0.62 0.43 0.49 0.30 0.30 0.74 0.54 0.32 0.61 0.50 0.24 0.39 0.53 0.57 0.83 0.60 0.33 0.39 0.33 0.23 0.15 0.13 0.17 0.17 0.31 0.16 0.11 0.16 0.13 0.31 0.25 0.25 0.26 0.22 0.38 0.53 0.55 0.61 0.46 0.45 0.76 0.75 0.59 0.82 0.50 0.31 0.27 0.12 0.64 0.24 0.06 0.07 0.10 0.09 0.09 0.18 0.33 1.01 0.33
0.06 0.04 0.04 0.02 0.04 0.04 0.04 0.06 0.09 0.16 0.29 0.79 0.88 1.05 1.42 1.15 1.05 0.53 0.32 0.23 0.13 0.20 0.29 0.21 0.29 0.22 0.27 0.25 0.35 0.45 0.50 0.45 0.47 0.33 0.84 0.43 0.37 0.32 0.34 0.42 0.56 0.68 0.26 0.19 0.21 0.34 0.19 0.20 0.26 0.32 0.20 0.10 0.10 0.13 0.14 0.18 0.39 0.26 0.13 0.22 0.15 0.17 0.22 0.41 0.61 0.57 0.65 0.77 0.81 0.66 0.78 0.60 0.71 0.40 0.19 0.20 0.23 0.15 0.10 0.08 0.05 0.11 0.10 0.12 0.15 0.18 0.29
0.08 0.04 0.03 0.03 0.03 0.04 0.05 0.04 0.07 0.16 0.21 0.54 0.78 1.28 1.65 1.32 1.61 0.76 0.59 0.68 0.60 0.40 0.47 0.38 0.36 0.25 0.22 0.27 0.25 0.37 0.30 0.34 0.37 0.39 0.37 0.43 0.37 0.36 0.33 0.44 0.25 0.18 0.05 0.45 0.19 0.30 0.43 0.40 0.34 0.48 0.51 0.27 0.20 0.23 0.07 0.13 0.32 0.36 0.14 0.07 0.13 0.09 0.14 0.27 0.43 0.35 0.73 0.69 0.77 0.56 0.51 0.79 0.59 0.67 0.69 0.46 0.40 0.13 0.22 0.17 0.12 0.05 0.05 0.10 0.07 0.09 0.24
0.06 0.04 0.04 0.03 0.03 0.04 0.06 0.07 0.09 0.15 0.25 0.44 0.88 1.15 1.03 1.50 1.70 0.96 0.85 0.88 0.66 0.95 0.78 0.87 0.54 0.39 0.35 0.42 0.45 0.42 0.47 0.36 0.20 0.19 0.32 0.29 0.51 0.32 0.21 0.21 0.10 0.12 0.15 0.47 1.00 0.44 0.56 0.83 0.44 0.30 0.44 0.37 0.53 0.45 0.49 0.42 0.14 0.11 0.33 0.07 0.03 0.16 0.31 0.16 0.28 0.36 0.42 0.46 0.60 0.67 0.78 0.47 0.46 0.37 0.47 0.89 0.43 0.24 0.17 0.28 0.28 0.20 0.10 0.03 0.03 0.05 0.06
0.04 0.03 0.04 0.03 0.03 0.05 0.04 0.09 0.10 0.17 0.22 0.42 0.79 1.44 0.98 1.22 1.36 1.34 1.02 1.14 1.21 1.21 1.13 1.05 0.90 0.75 0.67 0.56 0.68 0.69 0.44 0.35 0.38 0.39 0.34 0.41 0.22 0.26 0.41 0.15 0.11 0.21 0.23 0.57 0.46 0.46 0.36 0.72 0.50 0.55 0.79 0.53 0.52 0.55 0.24 0.25 0.35 0.52 0.60 0.79 0.11 0.06 0.29 0.36 0.31 0.44 0.43 0.72 0.54 0.74 0.62 0.75 0.43 0.30 0.48 0.33 0.51 0.25 0.29 0.21 0.31 0.34 0.35 0.14 0.07 0.06 0.05
0.04 0.03 0.04 0.03 0.03 0.04 0.04 0.03 0.07 0.10 0.16 0.24 0.59 1.02 1.08 0.87 0.90 1.17 1.24 1.54 1.33 1.18 0.76 1.00 1.08 1.01 0.99 0.76 0.59 0.59 0.44 0.44 0.40 0.40 0.45 0.22 0.09 0.15 0.28 0.22 0.09 0.19 0.22 0.46 0.38 0.31 0.70 0.48 0.58 0.44 0.44 0.44 0.54 0.60 0.25 0.36 0.38 0.13 0.12 0.27 0.10 0.16 0.25 0.50 0.17 0.80 0.30 0.44 0.44 0.40 0.46 0.53 0.30 0.34 0.06 0.45 0.32 0.27 0.39 0.12 0.26 0.37 0.23 0.24 0.21 0.17 0.10
0.05 0.05 0.05 0.04 0.03 0.03 0.03 0.02 0.05 0.09 0.12 0.30 0.70 0.88 0.77 0.61 1.00 1.25 1.16 1.59 1.45 1.14 0.70 0.59 1.44 0.79 0.77 0.70 0.57 0.59 0.54 0.50 0.36 0.36 0.21 0.29 0.20 0.33 0.12 0.08 0.09 0.13 0.39 0.28 0.21 0.37 0.30 0.27 2.08 0.51 0.43 0.30 0.41 0.19 0.19 0.28 0.44 0.27 0.28 0.49 0.14 0.32 0.35 0.27 0.34 0.24 0.32 0.61 0.55 0.43 0.23 0.75 0.27 0.18 0.21 0.21 0.25 0.25 0.38 0.23 0.30 0.26 0.19 0.16 0.14 0.19 0.17
0.05 0.05 0.04 0.03 0.02 0.03 0.03 0.04 0.05 0.07 0.14 0.15 0.66 0.67 0.37 0.50 1.04 1.11 1.22 1.07 1.23 0.87 0.52 0.47 0.62 0.67 0.72 0.63 0.65 0.39 0.45 0.52 0.35 0.19 0.14 0.09 0.12 0.22 0.32 0.06 0.37 0.16 0.23 0.34 0.19 0.27 0.92 0.45 0.44 0.27 0.38 0.36 0.30 0.27 0.51 0.35 0.25 0.32 0.41 0.72 0.55 0.18 0.15 0.13 0.35 0.29 0.48 0.23 0.48 0.42 0.32 0.10 0.13 0.16 0.12 0.21 0.20 0.19 0.38 0.57 0.43 0.15 0.15 0.14 0.10 0.12 0.17
0.06 0.05 0.03 0.03 0.02 0.02 0.03 0.05 0.03 0.06 0.12 0.30 0.45 0.27 0.19 0.34 0.54 0.90 1.25 1.14 1.19 0.99 0.44 0.39 0.38 0.44 0.39 0.52 0.48 0.31 0.31 0.16 0.19 0.23 0.26 0.57 0.20 0.37 0.09 0.15 0.13 0.28 0.18 0.27 0.16 0.32 0.36 0.32 0.34 0.86 0.29 0.51 0.25 0.27 0.56 0.47 0.48 0.61 0.60 0.47 0.23 0.10 0.12 0.14 0.13 0.27 0.53 0.53 0.46 0.38 0.86 0.62 0.17 0.06 0.06 0.42 0.10 0.22 0.33 0.47 0.17 0.17 0.17 0.10 0.09 0.12 0.16
0.06 0.04 0.04 0.03 0.02 0.02 0.04 0.03 0.03 0.07 0.20 0.21 0.37 0.36 0.10 0.22 0.24 0.45 1.01 1.50 0.94 0.80 0.48 0.43 0.34 0.35 0.25 0.31 0.29 0.36 0.24 0.27 0.11 0.14 0.17 0.30 0.23 0.43 0.34 0.66 0.09 0.13 0.13 0.16 0.12 0.14 0.28 0.28 0.39 0.37 0.88 0.59 0.48 0.41 0.28 0.35 0.22 0.41 0.35 0.52 0.20 0.15 0.25 0.36 0.20 0.23 0.22 0.21 0.31 0.52 0.49 1.36 0.08 0.23 0.14 0.47 0.13 0.46 0.25 0.16 0.18 0.09 0.10 0.08 0.06 0.06 0.07
0.05 0.04 0.03 0.02 0.02 0.02 0.02 0.02 0.05 0.11 0.21 0.21 0.13 0.19 0.25 0.12 0.14 0.23 0.49 0.83 1.12 0.78 0.37 0.21 0.25 0.25 0.19 0.21 0.09 0.10 0.09 0.39 0.19 0.34 0.10 0.22 0.24 0.19 0.31 0.44 0.43 0.18 0.14 0.08 0.11 0.16 0.17 0.27 0.31 0.30 0.42 0.74 0.54 0.42 0.27 0.26 0.09 0.13 0.14 0.36 0.33 0.57 0.41 0.30 0.17 0.20 0.26 0.48 0.33 0.44 0.47 0.30 0.12 0.10 0.19 0.31 0.15 0.30 0.38 0.20 0.17 0.10 0.08 0.08 0.07 0.05 0.04
0.04 0.04 0.03 0.02 0.02 0.03 0.02 0.04 0.08 0.13 0.19 0.13 0.05 0.15 0.13 0.09 0.14 0.17 0.16 0.47 0.60 0.55 0.25 0.19 0.10 0.16 0.07 0.08 0.07 0.09 0.10 0.05 0.01 0.05 0.16 0.15 0.03 0.15 0.17 0.08 0.56 0.35 0.43 0.06 0.10 0.75 0.16 0.42 0.24 0.34 0.49 0.35 0.41 0.28 0.18 0.09 0.18 0.26 0.04 0.16 0.70 0.21 0.26 0.13 0.22 0.19 0.33 0.28 0.35 0.38 0.17 0.19 0.14 0.09 0.14 0.15 0.21 0.16 0.22 0.29 0.30 0.32 0.22 0.09 0.06 0.09 0.09
0.04 0.03 0.02 0.02 0.01 0.02 0.02 0.05 0.10 0.15 0.11 0.06 0.08 0.13 0.10 0.10 0.21 0.11 0.26 0.25 0.13 0.16 0.16 0.17 0.19 0.08 0.04 0.06 0.03 0.00 0.01 0.01 0.04 0.13 0.24 0.16 0.06 0.02 0.15 0.53 0.53 0.45 0.45 0.16 0.71 0.90 0.74 0.39 0.50 0.64 0.66 0.50 0.42 0.27 0.25 0.19 0.12 0.05 0.17 0.03 0.40 0.22 0.16 0.06 0.12 0.19 0.12 0.22 0.15 0.15 0.15 0.13 0.19 0.09 0.11 0.10 0.11 0.15 0.20 0.22 0.26 0.30 0.39 0.28 0.21 0.16 0.22
0.03 0.02 0.02 0.02 0.01 0.02 0.03 0.08 0.15 0.09 0.07 0.04 0.06 0.12 0.08 0.03 0.03 0.09 0.11 0.10 0.09 0.04 0.02 0.09 0.27 0.12 0.07 0.05 0.01 0.01 0.02 0.04 0.09 0.06 0.05 0.20 0.85 0.06 0.11 0.35 0.23 0.07 0.39 0.42 0.26 0.60 0.44 0.06 0.28 0.30 0.48 0.20 0.20 0.32 0.33 0.10 0.07 0.10 0.09 0.08 0.14 0.31 0.02 0.05 0.06 0.12 0.04 0.23 0.40 0.09 0.17 0.12 0.09 0.14 0.12 0.07 0.05 0.09 0.12 0.15 0.19 0.30 0.41 0.39 0.25 0.32 0.36
0.02 0.02 0.02 0.01 0.02 0.02 0.06 0.10 0.08 0.07 0.03 0.02 0.03 0.03 0.04 0.04 0.02 0.05 0.09 0.04 0.01 0.05 0.07 0.00 0.02 0.00 0.01 0.00 0.01 0.03 0.01 0.00 0.01 0.01 0.06 0.08 0.23 0.20 0.13 0.16 0.01 0.11 0.22 0.14 0.07 0.14 0.28 0.05 0.06 0.22 0.21 0.49 0.15 0.36 0.21 0.08 0.08 0.03 0.07 0.14 0.06 0.17 0.04 0.05 0.04 0.07 0.07 0.29 0.23 0.14 0.08 0.09 0.06 0.05 0.08 0.05 0.04 0.04 0.06 0.11 0.15 0.23 0.36 0.44 0.47 0.39 0.37
0.02 0.02 0.02 0.01 0.02 0.04 0.05 0.08 0.06 0.03 0.00 0.01 0.03 0.05 0.03 0.01 0.01 0.04 0.06 0.05 0.09 0.19 0.09 0.01 0.01 0.00 0.00 0.00 0.00 0.00 0.00 0.02 0.00 0.02 0.03 0.00 0.01 0.01 0.03 0.05 0.12 0.02 0.04 0.04 0.20 0.03 0.05 0.03 0.01 0.10 0.29 0.45 0.08 0.28 0.26 0.10 0.26 0.07 0.07 0.41 0.18 0.36 0.02 0.04 0.09 0.07 0.19 0.14 0.16 0.24 0.18 0.14 0.05 0.06 0.06 0.04 0.03 0.03 0.02 0.03 0.14 0.20 0.36 0.38 0.44 0.46 0.42
0.01 0.03 0.01 0.01 0.02 0.03 0.06 0.04 0.02 0.01 0.00 0.00 0.01 0.01 0.01 0.01 0.01 0.02 0.03 0.04 0.07 0.04 0.05 0.02 0.00 0.00 0.00 0.00 0.00 0.00 0.00 0.00 0.00 0.00 0.00 0.00 0.01 0.06 0.07 0.08 0.06 0.07 0.18 0.14 0.04 0.00 0.02 0.01 0.01 0.26 0.19 0.67 0.07 0.19 0.13 0.22 0.13 0.06 0.07 0.25 0.04 0.09 0.20 0.07 0.04 0.14 0.13 0.33 0.40 0.12 0.27 0.22 0.27 0.08 0.12 0.08 0.10 0.10 0.09 0.05 0.12 0.10 0.19 0.31 0.39 0.44 0.43
0.02 0.02 0.01 0.01 0.04 0.07 0.03 0.01 0.01 0.00 0.00 0.00 0.00 0.00 0.01 0.01 0.00 0.01 0.02 0.02 0.07 0.07 0.04 0.01 0.04 0.00 0.00 0.00 0.00 0.00 0.00 0.00 0.00 0.00 0.00 0.06 0.07 0.23 0.47 0.38 0.39 0.40 0.28 0.13 0.06 0.05 0.08 0.02 0.42 0.08 0.01 0.13 0.07 0.14 0.05 0.18 0.11 0.10 0.16 0.22 0.13 0.19 0.25 0.16 0.11 0.25 0.27 0.16 0.14 0.17 0.09 0.10 0.11 0.12 0.06 0.05 0.05 0.07 0.09 0.07 0.07 0.06 0.05 0.11 0.17 0.22 0.23
0.01 0.01 0.01 0.02 0.10 0.01 0.01 0.01 0.00 0.00 0.00 0.01 0.00 0.00 0.00 0.00 0.01 0.01 0.02 0.02 0.02 0.09 0.08 0.01 0.00 0.00 0.04 0.00 0.00 0.00 0.00 0.00 0.00 0.00 0.00 0.00 0.01 0.04 0.30 0.15 0.25 0.25 0.15 0.12 0.44 0.17 0.01 0.03 0.10 0.02 0.18 0.61 0.07 0.16 0.08 0.15 0.04 0.12 0.22 0.13 0.04 0.09 0.14 0.08 0.10 0.08 0.08 0.12 0.19 0.14 0.25 0.22 0.09 0.06 0.03 0.02 0.03 0.04 0.03 0.06 0.03 0.04 0.04 0.03 0.02 0.06 0.12
0.01 0.01 0.02 0.06 0.00 0.01 0.01 0.00 0.00 0.00 0.01 0.01 0.00 0.01 0.01 0.05 0.02 0.03 0.00 0.03 0.03 0.13 0.06 0.02 0.02 0.00 0.00 0.00 0.00 0.00 0.00 0.00 0.00 0.00 0.00 0.01 0.00 0.00 0.03 0.08 0.07 0.07 0.33 0.09 0.19 0.14 0.09 0.02 0.01 0.02 0.05 0.03 0.09 0.24 0.09 0.11 0.13 0.07 0.03 0.08 0.03 0.03 0.08 0.08 0.17 0.13 0.26 0.05 0.06 0.09 0.10 0.08 0.02 0.03 0.02 0.01 0.06 0.06 0.07 0.07 0.06 0.03 0.01 0.01 0.01 0.02 0.02
0.02 0.01 0.01 0.01 0.00 0.00 0.00 0.00 0.00 0.00 0.00 0.02 0.04 0.05 0.03 0.04 0.09 0.02 0.02 0.02 0.03 0.06 0.05 0.04 0.01 0.00 0.00 0.00 0.00 0.00 0.00 0.00 0.00 0.00 0.01 0.03 0.01 0.02 0.00 0.03 0.04 0.08 0.12 0.17 0.31 0.29 0.36 0.14 0.01 0.12 0.26 0.03 0.19 0.11 0.31 0.17 0.10 0.24 0.08 0.07 0.09 0.15 0.13 0.08 0.05 0.06 0.03 0.03 0.05 0.06 0.07 0.04 0.03 0.03 0.02 0.04 0.03 0.02 0.02 0.02 0.02 0.02 0.02 0.03 0.01 0.02 0.01
0.01 0.01 0.02 0.01 0.01 0.00 0.00 0.00 0.00 0.00 0.01 0.01 0.01 0.03 0.08 0.03 0.04 0.02 0.01 0.01 0.02 0.05 0.03 0.02 0.00 0.01 0.00 0.00 0.00 0.00 0.00 0.00 0.00 0.00 0.01 0.01 0.01 0.00 0.00 0.02 0.03 0.07 0.09 0.10 0.11 0.43 0.20 0.01 0.07 0.05 0.03 0.09 0.03 0.12 0.09 0.33 0.15 0.17 0.11 0.13 0.21 0.14 0.05 0.03 0.03 0.02 0.02 0.04 0.05 0.07 0.08 0.09 0.15 0.12 0.10 0.03 0.02 0.02 0.03 0.02 0.02 0.02 0.03 0.02 0.02 0.02 0.02
0.01 0.01 0.01 0.00 0.00 0.00 0.00 0.00 0.00 0.00 0.00 0.00 0.00 0.00 0.00 0.00 0.00 0.00 0.01 0.01 0.04 0.02 0.02 0.04 0.02 0.00 0.01 0.00 0.00 0.00 0.00 0.04 0.02 0.00 0.02 0.00 0.00 0.00 0.00 0.00 0.01 0.02 0.01 0.07 0.06 0.09 0.02 0.03 0.13 0.03 0.06 0.04 0.55 0.07 0.23 0.26 0.24 0.18 0.25 0.29 0.13 0.20 0.08 0.08 0.04 0.06 0.05 0.07 0.09 0.15 0.13 0.07 0.05 0.05 0.03 0.02 0.04 0.04 0.02 0.03 0.02 0.01 0.02 0.02 0.04 0.04 0.03
0.01 0.00 0.00 0.00 0.00 0.00 0.00 0.00 0.00 0.00 0.01 0.02 0.06 0.00 0.01 0.00 0.00 0.00 0.01 0.04 0.03 0.01 0.01 0.01 0.00 0.00 0.00 0.00 0.03 0.01 0.00 0.01 0.01 0.00 0.00 0.00 0.01 0.00 0.00 0.00 0.00 0.00 0.01 0.03 0.00 0.02 0.01 0.06 0.05 0.02 0.02 0.12 0.17 0.02 0.10 0.30 0.30 0.09 0.13 0.17 0.16 0.11 0.22 0.19 0.11 0.06 0.06 0.04 0.07 0.09 0.08 0.06 0.05 0.05 0.05 0.03 0.04 0.03 0.02 0.03 0.03 0.04 0.04 0.06 0.05 0.09 0.05
0.00 0.00 0.00 0.00 0.00 0.00 0.00 0.00 0.00 0.00 0.04 0.03 0.01 0.00 0.00 0.00 0.01 0.03 0.02 0.02 0.06 0.00 0.00 0.00 0.01 0.00 0.00 0.00 0.00 0.00 0.00 0.01 0.00 0.00 0.00 0.00 0.00 0.00 0.00 0.00 0.00 0.01 0.02 0.00 0.00 0.01 0.01 0.02 0.01 0.03 0.05 0.05 0.03 0.03 0.13 0.16 0.12 0.15 0.05 0.08 0.24 0.24 0.19 0.16 0.08 0.08 0.04 0.03 0.03 0.04 0.03 0.04 0.06 0.08 0.07 0.06 0.04 0.02 0.02 0.02 0.04 0.08 0.09 0.09 0.08 0.05 0.02
0.00 0.00 0.00 0.00 0.00 0.00 0.00 0.00 0.00 0.02 0.03 0.02 0.03 0.00 0.00 0.00 0.00 0.02 0.02 0.01 0.02 0.06 0.00 0.01 0.01 0.01 0.00 0.00 0.00 0.00 0.00 0.02 0.00 0.00 0.00 0.00 0.00 0.00 0.00 0.00 0.00 0.00 0.00 0.00 0.00 0.00 0.01 0.03 0.13 0.09 0.01 0.08 0.15 0.24 0.31 0.28 0.17 0.15 0.09 0.11 0.14 0.10 0.26 0.18 0.17 0.09 0.04 0.03 0.06 0.08 0.07 0.06 0.07 0.03 0.02 0.02 0.02 0.01 0.03 0.05 0.03 0.05 0.08 0.07 0.08 0.12 0.07
0.00 0.00 0.00 0.00 0.00 0.01 0.02 0.01 0.01 0.01 0.02 0.00 0.00 0.00 0.00 0.00 0.01 0.01 0.04 0.09 0.03 0.00 0.01 0.01 0.02 0.03 0.02 0.00 0.00 0.01 0.00 0.02 0.00 0.00 0.00 0.00 0.00 0.00 0.00 0.00 0.00 0.00 0.00 0.00 0.00 0.00 0.02 0.00 0.03 0.03 0.03 0.03 0.01 0.09 0.06 0.16 0.25 0.50 0.49 0.31 0.08 0.12 0.12 0.12 0.11 0.10 0.04 0.04 0.05 0.07 0.04 0.02 0.02 0.03 0.05 0.04 0.03 0.05 0.06 0.06 0.04 0.07 0.08 0.10 0.17 0.17 0.22
0.00 0.00 0.00 0.00 0.00 0.00 0.00 0.02 0.08 0.01 0.00 0.00 0.00 0.01 0.01 0.00 0.03 0.00 0.01 0.01 0.02 0.01 0.00 0.01 0.01 0.01 0.00 0.02 0.01 0.00 0.01 0.00 0.00 0.00 0.00 0.00 0.00 0.00 0.00 0.00 0.00 0.00 0.00 0.00 0.00 0.00 0.00 0.01 0.02 0.04 0.01 0.03 0.04 0.06 0.01 0.04 0.05 0.07 0.21 0.30 0.07 0.07 0.13 0.13 0.08 0.07 0.04 0.03 0.03 0.02 0.03 0.04 0.06 0.06 0.06 0.08 0.07 0.14 0.13 0.08 0.05 0.05 0.08 0.15 0.23 0.20 0.29
0.00 0.00 0.00 0.01 0.02 0.00 0.00 0.04 0.00 0.00 0.00 0.00 0.00 0.00 0.00 0.00 0.00 0.01 0.01 0.01 0.03 0.04 0.02 0.01 0.01 0.00 0.02 0.02 0.01 0.02 0.00 0.00 0.00 0.00 0.00 0.00 0.00 0.00 0.00 0.00 0.00 0.00 0.00 0.00 0.00 0.00 0.01 0.02 0.01 0.03 0.13 0.04 0.03 0.02 0.02 0.05 0.03 0.05 0.09 0.19 0.28 0.12 0.06 0.07 0.09 0.10 0.08 0.08 0.11 0.15 0.17 0.16 0.15 0.09 0.09 0.14 0.25 0.21 0.17 0.09 0.08 0.13 0.12 0.15 0.20 0.25 0.36
0.00 0.01 0.00 0.00 0.00 0.01 0.00 0.00 0.00 0.00 0.00 0.00 0.00 0.00 0.00 0.00 0.00 0.00 0.00 0.00 0.01 0.00 0.03 0.02 0.02 0.02 0.01 0.03 0.00 0.00 0.02 0.00 0.00 0.00 0.00 0.00 0.00 0.00 0.00 0.00 0.00 0.00 0.00 0.00 0.00 0.00 0.00 0.00 0.02 0.02 0.08 0.04 0.02 0.02 0.03 0.02 0.06 0.09 0.08 0.10 0.17 0.09 0.04 0.05 0.06 0.05 0.03 0.04 0.06 0.10 0.10 0.10 0.09 0.15 0.19 0.19 0.21 0.31 0.33 0.22 0.18 0.13 0.15 0.27 0.38 0.44 0.55
0.00 0.00 0.03 0.00 0.00 0.00 0.00 0.00 0.00 0.00 0.00 0.00 0.00 0.00 0.00 0.00 0.00 0.00 0.00 0.00 0.00 0.01 0.00 0.00 0.01 0.03 0.03 0.00 0.01 0.00 0.18 0.00 0.01 0.00 0.00 0.00 0.00 0.00 0.00 0.00 0.00 0.00 0.00 0.00 0.00 0.00 0.01 0.01 0.04 0.04 0.05 0.02 0.01 0.06 0.07 0.06 0.05 0.10 0.13 0.12 0.07 0.09 0.03 0.04 0.05 0.03 0.02 0.04 0.06 0.07 0.09 0.10 0.12 0.15 0.19 0.20 0.25 0.41 0.69 0.71 0.60 0.42 0.33 0.25 0.21 0.23 0.27
0.01 0.01 0.00 0.00 0.01 0.01 0.00 0.00 0.00 0.00 0.00 0.00 0.00 0.00 0.00 0.00 0.00 0.00 0.00 0.01 0.01 0.00 0.01 0.00 0.00 0.01 0.01 0.00 0.00 0.00 0.00 0.00 0.00 0.00 0.00 0.00 0.00 0.00 0.00 0.00 0.00 0.00 0.00 0.00 0.00 0.00 0.00 0.01 0.01 0.03 0.03 0.02 0.02 0.11 0.07 0.07 0.14 0.17 0.10 0.06 0.04 0.04 0.06 0.05 0.04 0.05 0.05 0.07 0.07 0.10 0.14 0.15 0.17 0.23 0.22 0.21 0.23 0.33 0.44 0.44 0.42 0.31 0.22 0.14 0.14 0.17 0.24
0.00 0.01 0.02 0.02 0.01 0.00 0.00 0.00 0.00 0.00 0.00 0.00 0.00 0.00 0.00 0.00 0.00 0.00 0.00 0.00 0.00 0.00 0.03 0.00 0.00 0.00 0.01 0.00 0.01 0.01 0.00 0.00 0.00 0.00 0.00 0.00 0.00 0.00 0.00 0.00 0.00 0.00 0.00 0.00 0.00 0.00 0.00 0.09 0.01 0.04 0.04 0.03 0.13 0.29 0.16 0.17 0.19 0.14 0.08 0.07 0.03 0.03 0.05 0.05 0.06 0.09 0.13 0.14 0.13 0.18 0.19 0.15 0.21 0.25 0.23 0.25 0.23 0.27 0.23 0.18 0.17 0.15 0.12 0.11 0.11 0.17 0.27
0.00 0.01 0.01 0.02 0.00 0.00 0.00 0.00 0.00 0.00 0.00 0.00 0.00 0.00 0.00 0.00 0.00 0.00 0.00 0.01 0.01 0.00 0.00 0.01 0.03 0.00 0.02 0.00 0.00 0.00 0.00 0.02 0.00 0.00 0.00 0.00 0.00 0.00 0.00 0.00 0.00 0.00 0.00 0.00 0.00 0.00 0.02 0.01 0.01 0.02 0.02 0.08 0.28 0.26 0.19 0.16 0.09 0.11 0.10 0.07 0.04 0.03 0.04 0.06 0.07 0.12 0.14 0.14 0.20 0.26 0.23 0.19 0.17 0.14 0.14 0.16 0.13 0.11 0.14 0.10 0.07 0.07 0.09 0.12 0.15 0.17 0.16
0.01 0.00 0.00 0.00 0.00 0.00 0.00 0.00 0.00 0.00 0.00 0.00 0.00 0.01 0.00 0.00 0.00 0.00 0.03 0.02 0.00 0.12 0.00 0.00 0.00 0.00 0.00 0.02 0.00 0.00 0.01 0.00 0.00 0.00 0.00 0.00 0.00 0.00 0.00 0.00 0.00 0.00 0.00 0.00 0.00 0.02 0.01 0.01 0.02 0.03 0.04 0.09 0.30 0.17 0.08 0.05 0.03 0.06 0.05 0.04 0.04 0.06 0.08 0.10 0.11 0.15 0.16 0.19 0.24 0.28 0.33 0.29 0.19 0.14 0.11 0.09 0.08 0.07 0.07 0.08 0.06 0.03 0.03 0.05 0.07 0.09 0.09
0.00 0.00 0.00 0.00 0.00 0.00 0.00 0.00 0.00 0.00 0.00 0.01 0.00 0.00 0.01 0.00 0.03 0.07 0.02 0.00 0.01 0.00 0.00 0.01 0.00 0.01 0.01 0.02 0.01 0.00 0.00 0.00 0.00 0.01 0.00 0.00 0.00 0.00 0.00 0.00 0.00 0.00 0.00 0.00 0.00 0.00 0.00 0.00 0.03 0.02 0.04 0.08 0.25 0.16 0.05 0.04 0.04 0.04 0.03 0.03 0.03 0.06 0.10 0.11 0.12 0.16 0.22 0.28 0.27 0.27 0.31 0.28 0.21 0.21 0.21 0.14 0.11 0.08 0.09 0.07 0.05 0.05 0.04 0.04 0.03 0.04 0.04
0.00 0.01 0.00 0.00 0.00 0.00 0.00 0.00 0.00 0.01 0.04 0.02 0.02 0.03 0.03 0.02 0.02 0.03 0.04 0.00 0.01 0.01 0.01 0.00 0.00 0.00 0.01 0.00 0.00 0.00 0.00 0.00 0.01 0.00 0.00 0.00 0.00 0.00 0.00 0.00 0.00 0.00 0.00 0.00 0.00 0.00 0.00 0.00 0.02 0.04 0.01 0.07 0.27 0.09 0.04 0.02 0.02 0.02 0.02 0.01 0.02 0.04 0.08 0.14 0.13 0.13 0.21 0.26 0.20 0.19 0.20 0.21 0.13 0.14 0.10 0.09 0.07 0.08 0.05 0.05 0.05 0.04 0.04 0.04 0.03 0.03 0.03
0.00 0.00 0.00 0.00 0.00 0.00 0.00 0.00 0.01 0.01 0.00 0.01 0.07 0.01 0.04 0.01 0.03 0.04 0.01 0.02 0.02 0.00 0.01 0.00 0.01 0.00 0.00 0.01 0.00 0.00 0.00 0.02 0.01 0.00 0.00 0.00 0.00 0.00 0.00 0.00 0.00 0.00 0.00 0.00 0.00 0.00 0.00 0.00 0.01 0.11 0.02 0.05 0.15 0.13 0.04 0.02 0.01 0.01 0.01 0.01 0.02 0.03 0.08 0.16 0.19 0.19 0.20 0.18 0.19 0.17 0.18 0.17 0.14 0.11 0.08 0.06 0.04 0.04 0.03 0.03 0.02 0.02 0.02 0.02 0.02 0.02 0.02
0.00 0.00 0.00 0.00 0.00 0.00 0.01 0.05 0.01 0.04 0.02 0.01 0.03 0.08 0.04 0.20 0.13 0.06 0.02 0.01 0.00 0.03 0.01 0.00 0.00 0.00 0.00 0.02 0.01 0.00 0.01 0.00 0.01 0.01 0.00 0.00 0.01 0.01 0.02 0.02 0.01 0.00 0.00 0.01 0.00 0.01 0.01 0.01 0.01 0.01 0.02 0.03 0.13 0.16 0.06 0.02 0.01 0.01 0.01 0.02 0.03 0.04 0.03 0.06 0.15 0.28 0.29 0.19 0.17 0.16 0.30 0.23 0.15 0.10 0.06 0.05 0.06 0.09 0.08 0.05 0.05 0.04 0.02 0.02 0.03 0.03 0.02
0.00 0.01 0.01 0.01 0.00 0.00 0.03 0.01 0.01 0.03 0.02 0.01 0.03 0.04 0.05 0.03 0.02 0.06 0.04 0.03 0.00 0.00 0.01 0.00 0.00 0.01 0.02 0.01 0.02 0.01 0.01 0.00 0.00 0.00 0.01 0.01 0.01 0.01 0.02 0.02 0.00 0.00 0.00 0.02 0.01 0.01 0.01 0.05 0.01 0.01 0.01 0.02 0.08 0.14 0.05 0.04 0.02 0.00 0.01 0.02 0.01 0.02 0.02 0.03 0.06 0.08 0.12 0.18 0.21 0.16 0.11 0.07 0.09 0.11 0.09 0.10 0.07 0.03 0.02 0.03 0.03 0.03 0.01 0.01 0.02 0.03 0.02
0.00 0.00 0.00 0.00 0.01 0.06 0.03 0.04 0.04 0.04 0.01 0.07 0.06 0.12 0.02 0.06 0.07 0.04 0.03 0.06 0.13 0.08 0.01 0.05 0.13 0.04 0.03 0.04 0.04 0.04 0.03 0.00 0.00 0.01 0.00 0.00 0.00 0.01 0.02 0.01 0.00 0.00 0.00 0.01 0.02 0.02 0.02 0.02 0.02 0.04 0.01 0.03 0.06 0.15 0.13 0.03 0.03 0.03 0.03 0.01 0.02 0.01 0.01 0.02 0.03 0.05 0.03 0.04 0.04 0.01 0.03 0.02 0.04 0.07 0.03 0.01 0.02 0.01 0.02 0.01 0.00 0.00 0.01 0.02 0.02 0.09 0.09
0.02 0.02 0.01 0.00 0.00 0.00 0.01 0.02 0.00 0.01 0.06 0.08 0.05 0.05 0.00 0.01 0.01 0.02 0.01 0.01 0.00 0.04 0.19 0.04 0.05 0.19 0.10 0.08 0.04 0.01 0.02 0.02 0.02 0.01 0.01 0.00 0.00 0.00 0.01 0.01 0.01 0.01 0.02 0.02 0.02 0.03 0.02 0.03 0.01 0.00 0.01 0.04 0.05 0.10 0.07 0.05 0.02 0.04 0.04 0.03 0.01 0.02 0.02 0.01 0.05 0.01 0.01 0.05 0.07 0.05 0.04 0.02 0.01 0.00 0.00 0.00 0.01 0.01 0.03 0.05 0.02 0.01 0.02 0.02 0.02 0.02 0.01